,,,PA_Meas_PMT16A,,PR_Meas_QMR101_102,,RH_Meas_QMH101,,SR_Meas_QMS101,,TA_Meas_QMH101,,GenWind,,GenWind,
date,time,status,PA,status,PR,status,RH,status,SR,status,TA,status,DirAvg,status,SpdAvg,
2011-08-26, 00:00:04,VALID,1004.65,VALID,0,INVALID,163.693,VALID,0,VALID,24.7937,VALID,29,VALID,0,
2011-08-26, 00:01:04,VALID,1004.67,VALID,0,INVALID,163.723,VALID,0,VALID,24.8132,VALID,53,VALID,0,
2011-08-26, 00:02:04,VALID,1004.64,VALID,0,INVALID,163.708,VALID,0,VALID,24.7743,VALID,39,VALID,0,
2011-08-26, 00:03:04,VALID,1004.68,VALID,0,INVALID,163.708,VALID,0,VALID,24.7724,VALID,40,VALID,0,
2011-08-26, 00:04:04,VALID,1004.67,VALID,0,INVALID,163.708,VALID,0,VALID,24.7761,VALID,40,VALID,0,
2011-08-26, 00:05:04,VALID,1004.69,VALID,0,INVALID,163.708,VALID,0,VALID,24.7743,VALID,41,VALID,0,
2011-08-26, 00:06:04,VALID,1004.68,VALID,0,INVALID,163.708,VALID,0,VALID,24.7743,VALID,8,VALID,0,
2011-08-26, 00:07:04,VALID,1004.67,VALID,0,INVALID,163.716,VALID,0,VALID,24.7743,VALID,53,VALID,0,
2011-08-26, 00:08:04,VALID,1004.66,VALID,0,INVALID,163.701,VALID,0,VALID,24.7743,VALID,113,VALID,0,
2011-08-26, 00:09:04,VALID,1004.66,VALID,0,INVALID,163.67,VALID,0,VALID,24.7743,VALID,74,VALID,0,
2011-08-26, 00:10:04,VALID,1004.63,VALID,0,INVALID,163.701,VALID,0,VALID,24.7529,VALID,69,VALID,0,
2011-08-26, 00:11:04,VALID,1004.63,VALID,0,INVALID,163.708,VALID,0,VALID,24.7937,VALID,18,VALID,0,
2011-08-26, 00:12:04,VALID,1004.61,VALID,0,INVALID,163.708,VALID,0,VALID,24.7937,VALID,18,VALID,0,
2011-08-26, 00:13:04,VALID,1004.61,VALID,0,INVALID,163.708,VALID,0,VALID,24.7724,VALID,34,VALID,0,
2011-08-26, 00:14:04,VALID,1004.59,VALID,0,INVALID,163.701,VALID,0,VALID,24.8132,VALID,39,VALID,0,
2011-08-26, 00:15:04,VALID,1004.58,VALID,0,INVALID,163.701,VALID,0.100563,VALID,24.8095,VALID,11,VALID,0,
2011-08-26, 00:16:04,VALID,1004.61,VALID,0,INVALID,163.708,VALID,0.100563,VALID,24.8289,VALID,13,VALID,0,
2011-08-26, 00:17:04,VALID,1004.6,VALID,0,INVALID,163.685,VALID,0,VALID,24.8503,VALID,101,VALID,0,
2011-08-26, 00:18:04,VALID,1004.6,VALID,0,INVALID,163.685,VALID,0,VALID,24.8289,VALID,101,VALID,0,
2011-08-26, 00:19:04,VALID,1004.6,VALID,0,INVALID,163.685,VALID,0,VALID,24.9282,VALID,59,VALID,0,
2011-08-26, 00:20:04,VALID,1004.62,VALID,0,INVALID,163.678,VALID,0,VALID,24.9652,VALID,37,VALID,0,
2011-08-26, 00:21:04,VALID,1004.6,VALID,0,INVALID,163.678,VALID,0,VALID,25.0255,VALID,11,VALID,0,
2011-08-26, 00:22:04,VALID,1004.58,VALID,0,INVALID,163.701,VALID,0,VALID,25.0255,VALID,47,VALID,0,
2011-08-26, 00:23:04,VALID,1004.59,VALID,0,INVALID,163.685,VALID,0,VALID,25.045,VALID,46,VALID,0,
2011-08-26, 00:24:04,VALID,1004.58,VALID,0,INVALID,163.678,VALID,0.100563,VALID,25.0255,VALID,52,VALID,0,
2011-08-26, 00:25:04,VALID,1004.56,VALID,0,INVALID,163.662,VALID,0.100563,VALID,25.0644,VALID,53,VALID,0,
2011-08-26, 00:26:04,VALID,1004.56,VALID,0,INVALID,163.685,VALID,0.100563,VALID,25.0431,VALID,24,VALID,0,
2011-08-26, 00:27:04,VALID,1004.54,VALID,0,INVALID,163.655,VALID,0,VALID,25.0644,VALID,61,VALID,0,
2011-08-26, 00:28:04,VALID,1004.54,VALID,0,INVALID,163.685,VALID,0.100563,VALID,25.0644,VALID,8,VALID,0,
2011-08-26, 00:29:04,VALID,1004.53,VALID,0,INVALID,163.678,VALID,0.100563,VALID,25.1423,VALID,359,VALID,0,
2011-08-26, 00:30:04,VALID,1004.53,VALID,0,INVALID,163.655,VALID,0,VALID,25.1442,VALID,358,VALID,0,
2011-08-26, 00:31:04,VALID,1004.52,VALID,0,INVALID,163.655,VALID,0,VALID,25.1229,VALID,19,VALID,0,
2011-08-26, 00:32:04,VALID,1004.5,VALID,0,INVALID,163.693,VALID,0,VALID,25.1053,VALID,19,VALID,0,
2011-08-26, 00:33:04,VALID,1004.54,VALID,0,INVALID,163.678,VALID,0,VALID,25.0858,VALID,20,VALID,0,
2011-08-26, 00:34:04,VALID,1004.51,VALID,0,INVALID,163.678,VALID,0,VALID,25.045,VALID,20,VALID,0,
2011-08-26, 00:35:04,VALID,1004.5,VALID,0,INVALID,163.693,VALID,0,VALID,25.0274,VALID,15,VALID,0,
2011-08-26, 00:36:04,VALID,1004.48,VALID,0,INVALID,163.662,VALID,0,VALID,25.0079,VALID,13,VALID,0,
2011-08-26, 00:37:04,VALID,1004.49,VALID,0,INVALID,163.685,VALID,0,VALID,24.9671,VALID,26,VALID,0,
2011-08-26, 00:38:04,VALID,1004.47,VALID,0,INVALID,163.716,VALID,0,VALID,24.9866,VALID,67,VALID,0,
2011-08-26, 00:39:05,VALID,1004.45,VALID,0,INVALID,163.685,VALID,0,VALID,24.9476,VALID,34,VALID,0,
2011-08-26, 00:40:05,VALID,1004.45,VALID,0,INVALID,163.67,VALID,0,VALID,24.9087,VALID,34,VALID,0,
2011-08-26, 00:41:05,VALID,1004.44,VALID,0,INVALID,163.678,VALID,0,VALID,24.8911,VALID,33,VALID,0,
2011-08-26, 00:42:05,VALID,1004.39,VALID,0,INVALID,163.723,VALID,0,VALID,24.8308,VALID,49,VALID,0,
2011-08-26, 00:43:05,VALID,1004.4,VALID,0,INVALID,163.685,VALID,0,VALID,24.8132,VALID,49,VALID,0,
2011-08-26, 00:44:05,VALID,1004.35,VALID,0,INVALID,163.701,VALID,0,VALID,24.7724,VALID,49,VALID,0,
2011-08-26, 00:45:05,VALID,1004.34,VALID,0,INVALID,163.693,VALID,0.100563,VALID,24.751,VALID,34,VALID,0,
2011-08-26, 00:46:05,VALID,1004.31,VALID,0,INVALID,163.708,VALID,0.100563,VALID,24.7121,VALID,34,VALID,0,
2011-08-26, 00:47:05,VALID,1004.3,VALID,0,INVALID,163.716,VALID,0.100563,VALID,24.675,VALID,34,VALID,0,
2011-08-26, 00:48:05,VALID,1004.3,VALID,0,INVALID,163.716,VALID,0.100563,VALID,24.6361,VALID,34,VALID,0,
2011-08-26, 00:49:05,VALID,1004.26,VALID,0,INVALID,163.731,VALID,0.100563,VALID,24.5953,VALID,33,VALID,0,
2011-08-26, 00:50:05,VALID,1004.25,VALID,0,INVALID,163.731,VALID,0.100563,VALID,24.5758,VALID,33,VALID,0,
2011-08-26, 00:51:05,VALID,1004.23,VALID,0,INVALID,163.701,VALID,0.100563,VALID,24.5582,VALID,32,VALID,0,
2011-08-26, 00:52:05,VALID,1004.22,VALID,0,INVALID,163.746,VALID,0.100563,VALID,24.5193,VALID,32,VALID,0,
2011-08-26, 00:53:05,VALID,1004.21,VALID,0,INVALID,163.708,VALID,0,VALID,24.4609,VALID,32,VALID,0,
2011-08-26, 00:54:05,VALID,1004.2,VALID,0,INVALID,163.708,VALID,0.100563,VALID,24.4006,VALID,32,VALID,0,
2011-08-26, 00:55:05,VALID,1004.18,VALID,0,INVALID,163.723,VALID,0,VALID,24.3636,VALID,32,VALID,0,
2011-08-26, 00:56:05,VALID,1004.2,VALID,0,INVALID,163.701,VALID,0.100563,VALID,24.3636,VALID,51,VALID,0,
2011-08-26, 00:57:05,VALID,1004.17,VALID,0,INVALID,163.762,VALID,0.100563,VALID,24.3636,VALID,51,VALID,0,
2011-08-26, 00:58:05,VALID,1004.18,VALID,0,INVALID,163.708,VALID,0.100563,VALID,24.3422,VALID,51,VALID,0,
2011-08-26, 00:59:05,VALID,1004.16,VALID,0,INVALID,163.746,VALID,0.100563,VALID,24.383,VALID,94,VALID,0,
2011-08-26, 01:00:05,VALID,1004.15,VALID,0,INVALID,163.723,VALID,0,VALID,24.4025,VALID,95,VALID,0,
2011-08-26, 01:01:05,VALID,1004.13,VALID,0,INVALID,163.746,VALID,0,VALID,24.383,VALID,95,VALID,0,
2011-08-26, 01:02:05,VALID,1004.12,VALID,0,INVALID,163.708,VALID,0,VALID,24.3441,VALID,95,VALID,0,
2011-08-26, 01:03:05,VALID,1004.12,VALID,0,INVALID,163.708,VALID,0,VALID,24.3441,VALID,95,VALID,0,
2011-08-26, 01:04:05,VALID,1004.09,VALID,0,INVALID,163.746,VALID,0,VALID,24.3636,VALID,95,VALID,0,
2011-08-26, 01:05:05,VALID,1004.12,VALID,0,INVALID,163.708,VALID,0,VALID,24.3228,VALID,95,VALID,0,
2011-08-26, 01:06:05,VALID,1004.11,VALID,0,INVALID,163.762,VALID,0,VALID,24.2644,VALID,95,VALID,0,
2011-08-26, 01:07:05,VALID,1004.06,VALID,0,INVALID,163.746,VALID,0,VALID,24.2273,VALID,92,VALID,0,
2011-08-26, 01:08:05,VALID,1004.06,VALID,0,INVALID,163.754,VALID,0,VALID,24.2273,VALID,86,VALID,0,
2011-08-26, 01:09:05,VALID,1004.08,VALID,0,INVALID,163.739,VALID,0,VALID,24.1689,VALID,86,VALID,0,
2011-08-26, 01:10:05,VALID,1004.09,VALID,0,INVALID,163.746,VALID,0,VALID,24.1494,VALID,86,VALID,0,
2011-08-26, 01:11:05,VALID,1004.06,VALID,0,INVALID,163.746,VALID,0,VALID,24.1105,VALID,86,VALID,0,
2011-08-26, 01:12:05,VALID,1004.06,VALID,0,INVALID,163.784,VALID,0,VALID,24.091,VALID,86,VALID,0,
2011-08-26, 01:13:05,VALID,1004.07,VALID,0,INVALID,163.716,VALID,0,VALID,24.0929,VALID,86,VALID,0,
2011-08-26, 01:14:05,VALID,1004.04,VALID,0,INVALID,163.754,VALID,0,VALID,24.0503,VALID,86,VALID,0,
2011-08-26, 01:15:05,VALID,1004.03,VALID,0,INVALID,163.762,VALID,0,VALID,24.0308,VALID,86,VALID,0,
2011-08-26, 01:16:05,VALID,1004.05,VALID,0,INVALID,163.746,VALID,0,VALID,24.0114,VALID,86,VALID,0,
2011-08-26, 01:17:05,VALID,1003.99,VALID,0,INVALID,163.746,VALID,0,VALID,24.0326,VALID,86,VALID,0,
2011-08-26, 01:18:05,VALID,1003.97,VALID,0,INVALID,163.754,VALID,0,VALID,24.0308,VALID,85,VALID,0,
2011-08-26, 01:19:05,VALID,1003.98,VALID,0,INVALID,163.769,VALID,0,VALID,24.091,VALID,85,VALID,0,
2011-08-26, 01:20:05,VALID,1003.94,VALID,0,INVALID,163.754,VALID,0.100563,VALID,24.0697,VALID,85,VALID,0,
2011-08-26, 01:21:05,VALID,1003.91,VALID,0,INVALID,163.754,VALID,0.100563,VALID,24.0697,VALID,85,VALID,0,
2011-08-26, 01:22:05,VALID,1003.9,VALID,0,INVALID,163.731,VALID,0,VALID,24.13,VALID,85,VALID,0,
2011-08-26, 01:23:05,VALID,1003.88,VALID,0,INVALID,163.762,VALID,0,VALID,24.13,VALID,85,VALID,0,
2011-08-26, 01:24:05,VALID,1003.82,VALID,0,INVALID,163.777,VALID,0,VALID,24.1105,VALID,85,VALID,0,
2011-08-26, 01:25:05,VALID,1003.8,VALID,0,INVALID,163.723,VALID,0,VALID,24.1105,VALID,85,VALID,0,
2011-08-26, 01:26:05,VALID,1003.79,VALID,0,INVALID,163.708,VALID,0,VALID,24.0892,VALID,85,VALID,0,
2011-08-26, 01:27:05,VALID,1003.8,VALID,0,INVALID,163.739,VALID,0,VALID,24.1105,VALID,85,VALID,0,
2011-08-26, 01:28:05,VALID,1003.8,VALID,0,INVALID,163.739,VALID,0.100563,VALID,24.1318,VALID,85,VALID,0,
2011-08-26, 01:29:05,VALID,1003.81,VALID,0,INVALID,163.746,VALID,0,VALID,24.0716,VALID,85,VALID,0,
2011-08-26, 01:30:05,VALID,1003.81,VALID,0,INVALID,163.762,VALID,0.100563,VALID,24.0308,VALID,85,VALID,0,
2011-08-26, 01:31:05,VALID,1003.83,VALID,0,INVALID,163.762,VALID,0,VALID,24.0521,VALID,85,VALID,0,
2011-08-26, 01:32:05,VALID,1003.83,VALID,0,INVALID,163.762,VALID,0,VALID,24.0326,VALID,85,VALID,0,
2011-08-26, 01:33:05,VALID,1003.84,VALID,0,INVALID,163.762,VALID,0,VALID,24.0326,VALID,85,VALID,0,
2011-08-26, 01:34:05,VALID,1003.83,VALID,0,INVALID,163.746,VALID,0,VALID,24.0539,VALID,85,VALID,0,
2011-08-26, 01:35:05,VALID,1003.84,VALID,0,INVALID,163.754,VALID,0,VALID,24.0326,VALID,85,VALID,0,
2011-08-26, 01:36:05,VALID,1003.85,VALID,0,INVALID,163.8,VALID,0,VALID,23.9937,VALID,64,VALID,0,
2011-08-26, 01:37:05,VALID,1003.84,VALID,0,INVALID,163.777,VALID,0,VALID,23.9548,VALID,57,VALID,0,
2011-08-26, 01:38:05,VALID,1003.83,VALID,0,INVALID,163.746,VALID,0,VALID,23.9159,VALID,57,VALID,0,
2011-08-26, 01:39:05,VALID,1003.88,VALID,0,INVALID,163.769,VALID,0.100563,VALID,23.8946,VALID,57,VALID,0,
2011-08-26, 01:40:05,VALID,1003.89,VALID,0,INVALID,163.762,VALID,0,VALID,23.8769,VALID,57,VALID,0,
2011-08-26, 01:41:05,VALID,1003.88,VALID,0,INVALID,163.769,VALID,0,VALID,23.8769,VALID,57,VALID,0,
2011-08-26, 01:42:05,VALID,1003.9,VALID,0,INVALID,163.777,VALID,0,VALID,23.8769,VALID,57,VALID,0,
2011-08-26, 01:43:05,VALID,1003.9,VALID,0,INVALID,163.754,VALID,0,VALID,23.8167,VALID,57,VALID,0,
2011-08-26, 01:44:05,VALID,1003.92,VALID,0,INVALID,163.777,VALID,0,VALID,23.8185,VALID,57,VALID,0,
2011-08-26, 01:45:05,VALID,1003.92,VALID,0,INVALID,163.769,VALID,0,VALID,23.8769,VALID,63,VALID,0,
2011-08-26, 01:46:05,VALID,1003.92,VALID,0,INVALID,163.784,VALID,0,VALID,23.9548,VALID,81,VALID,0,
2011-08-26, 01:47:05,VALID,1003.92,VALID,0,INVALID,163.762,VALID,0,VALID,23.9742,VALID,81,VALID,0,
2011-08-26, 01:48:05,VALID,1003.93,VALID,0,INVALID,163.754,VALID,0,VALID,24.0326,VALID,81,VALID,0,
2011-08-26, 01:49:05,VALID,1003.88,VALID,0,INVALID,163.754,VALID,0,VALID,24.1087,VALID,81,VALID,0,
2011-08-26, 01:50:05,VALID,1003.88,VALID,0,INVALID,163.746,VALID,0,VALID,24.1281,VALID,81,VALID,0,
2011-08-26, 01:51:05,VALID,1003.9,VALID,0,INVALID,163.746,VALID,0.100563,VALID,24.1689,VALID,81,VALID,0,
2011-08-26, 01:52:05,VALID,1003.89,VALID,0,INVALID,163.723,VALID,0,VALID,24.13,VALID,81,VALID,0,
2011-08-26, 01:53:05,VALID,1003.9,VALID,0,INVALID,163.708,VALID,0,VALID,24.1281,VALID,81,VALID,0,
2011-08-26, 01:54:05,VALID,1003.94,VALID,0,INVALID,163.746,VALID,0,VALID,24.1865,VALID,80,VALID,0,
2011-08-26, 01:55:05,VALID,1003.91,VALID,0,INVALID,163.754,VALID,0,VALID,24.2078,VALID,80,VALID,0,
2011-08-26, 01:56:05,VALID,1003.95,VALID,0,INVALID,163.746,VALID,0,VALID,24.1884,VALID,80,VALID,0,
2011-08-26, 01:57:05,VALID,1003.94,VALID,0,INVALID,163.746,VALID,0,VALID,24.2273,VALID,80,VALID,0,
2011-08-26, 01:58:05,VALID,1003.94,VALID,0,INVALID,163.708,VALID,0,VALID,24.2468,VALID,80,VALID,0,
2011-08-26, 01:59:05,VALID,1003.95,VALID,0,INVALID,163.708,VALID,0,VALID,24.2255,VALID,80,VALID,0,
2011-08-26, 02:00:05,VALID,1003.93,VALID,0,INVALID,163.754,VALID,0,VALID,24.2468,VALID,72,VALID,0,
2011-08-26, 02:01:05,VALID,1003.93,VALID,0,INVALID,163.739,VALID,0,VALID,24.3033,VALID,82,VALID,0,
2011-08-26, 02:02:05,VALID,1003.86,VALID,0,INVALID,163.723,VALID,0,VALID,24.383,VALID,75,VALID,0,
2011-08-26, 02:03:05,VALID,1003.85,VALID,0,INVALID,163.731,VALID,0,VALID,24.4414,VALID,93,VALID,0,
2011-08-26, 02:04:05,VALID,1003.81,VALID,0,INVALID,163.723,VALID,0,VALID,24.4804,VALID,86,VALID,0,
2011-08-26, 02:05:05,VALID,1003.79,VALID,0,INVALID,163.739,VALID,0,VALID,24.4609,VALID,86,VALID,0,
2011-08-26, 02:06:05,VALID,1003.77,VALID,0,INVALID,163.716,VALID,0.100563,VALID,24.4804,VALID,89,VALID,0,
2011-08-26, 02:07:05,VALID,1003.75,VALID,0,INVALID,163.716,VALID,0.100563,VALID,24.5388,VALID,106,VALID,0,
2011-08-26, 02:08:05,VALID,1003.76,VALID,0,INVALID,163.701,VALID,0,VALID,24.4785,VALID,106,VALID,0,
2011-08-26, 02:09:05,VALID,1003.74,VALID,0,INVALID,163.708,VALID,0,VALID,24.6166,VALID,98,VALID,0,
2011-08-26, 02:10:05,VALID,1003.76,VALID,0,INVALID,163.693,VALID,0.100563,VALID,24.6342,VALID,92,VALID,0,
2011-08-26, 02:11:05,VALID,1003.76,VALID,0,INVALID,163.731,VALID,0,VALID,24.675,VALID,93,VALID,0,
2011-08-26, 02:12:05,VALID,1003.79,VALID,0,INVALID,163.685,VALID,0,VALID,24.714,VALID,105,VALID,0,
2011-08-26, 02:13:05,VALID,1003.79,VALID,0,INVALID,163.701,VALID,0,VALID,24.714,VALID,99,VALID,0,
2011-08-26, 02:14:05,VALID,1003.77,VALID,0,INVALID,163.708,VALID,0,VALID,24.7316,VALID,87,VALID,0,
2011-08-26, 02:15:05,VALID,1003.76,VALID,0,INVALID,163.701,VALID,0,VALID,24.7335,VALID,51,VALID,0,
2011-08-26, 02:16:05,VALID,1003.78,VALID,0,INVALID,163.685,VALID,0,VALID,24.7316,VALID,51,VALID,0,
2011-08-26, 02:17:05,VALID,1003.79,VALID,0,INVALID,163.716,VALID,0,VALID,24.7335,VALID,51,VALID,0,
2011-08-26, 02:18:05,VALID,1003.8,VALID,0,INVALID,163.685,VALID,0,VALID,24.7335,VALID,51,VALID,0,
2011-08-26, 02:19:05,VALID,1003.8,VALID,0,INVALID,163.708,VALID,0,VALID,24.7335,VALID,51,VALID,0,
2011-08-26, 02:20:05,VALID,1003.79,VALID,0,INVALID,163.685,VALID,0,VALID,24.675,VALID,51,VALID,0,
2011-08-26, 02:21:05,VALID,1003.79,VALID,0,INVALID,163.716,VALID,0,VALID,24.6166,VALID,51,VALID,0,
2011-08-26, 02:22:05,VALID,1003.78,VALID,0,INVALID,163.708,VALID,0,VALID,24.5777,VALID,51,VALID,0,
2011-08-26, 02:23:05,VALID,1003.76,VALID,0,INVALID,163.716,VALID,0,VALID,24.5582,VALID,51,VALID,0,
2011-08-26, 02:24:05,VALID,1003.73,VALID,0,INVALID,163.723,VALID,0,VALID,24.5193,VALID,51,VALID,0,
2011-08-26, 02:25:05,VALID,1003.72,VALID,0,INVALID,163.754,VALID,0,VALID,24.5193,VALID,42,VALID,0,
2011-08-26, 02:26:05,VALID,1003.7,VALID,0,INVALID,163.731,VALID,0,VALID,24.498,VALID,27,VALID,0,
2011-08-26, 02:27:05,VALID,1003.73,VALID,0,INVALID,163.708,VALID,0.100563,VALID,24.498,VALID,27,VALID,0,
2011-08-26, 02:28:05,VALID,1003.73,VALID,0,INVALID,163.716,VALID,0,VALID,24.4998,VALID,27,VALID,0,
2011-08-26, 02:29:05,VALID,1003.72,VALID,0,INVALID,163.716,VALID,0,VALID,24.4804,VALID,27,VALID,0,
2011-08-26, 02:30:05,VALID,1003.74,VALID,0,INVALID,163.708,VALID,0,VALID,24.4822,VALID,27,VALID,0,
2011-08-26, 02:31:05,VALID,1003.74,VALID,0,INVALID,163.739,VALID,0,VALID,24.4433,VALID,27,VALID,0,
2011-08-26, 02:32:05,VALID,1003.76,VALID,0,INVALID,163.731,VALID,0,VALID,24.4238,VALID,27,VALID,0,
2011-08-26, 02:33:05,VALID,1003.76,VALID,0,INVALID,163.723,VALID,0,VALID,24.4433,VALID,27,VALID,0,
2011-08-26, 02:34:05,VALID,1003.73,VALID,0,INVALID,163.731,VALID,0,VALID,24.4238,VALID,27,VALID,0,
2011-08-26, 02:35:05,VALID,1003.75,VALID,0,INVALID,163.731,VALID,0,VALID,24.4609,VALID,27,VALID,0,
2011-08-26, 02:36:05,VALID,1003.75,VALID,0,INVALID,163.739,VALID,0,VALID,24.4628,VALID,27,VALID,0,
2011-08-26, 02:37:05,VALID,1003.74,VALID,0,INVALID,163.708,VALID,0,VALID,24.4433,VALID,27,VALID,0,
2011-08-26, 02:38:05,VALID,1003.75,VALID,0,INVALID,163.693,VALID,0,VALID,24.4414,VALID,27,VALID,0,
2011-08-26, 02:39:05,VALID,1003.72,VALID,0,INVALID,163.739,VALID,0,VALID,24.4433,VALID,26,VALID,0,
2011-08-26, 02:40:05,VALID,1003.71,VALID,0,INVALID,163.723,VALID,0,VALID,24.4414,VALID,14,VALID,0,
2011-08-26, 02:41:05,VALID,1003.67,VALID,0,INVALID,163.723,VALID,0,VALID,24.4822,VALID,14,VALID,0,
2011-08-26, 02:42:05,VALID,1003.67,VALID,0,INVALID,163.739,VALID,0,VALID,24.4628,VALID,14,VALID,0,
2011-08-26, 02:43:05,VALID,1003.62,VALID,0,INVALID,163.731,VALID,0,VALID,24.4025,VALID,14,VALID,0,
2011-08-26, 02:44:05,VALID,1003.62,VALID,0,INVALID,163.723,VALID,0,VALID,24.4238,VALID,14,VALID,0,
2011-08-26, 02:45:05,VALID,1003.63,VALID,0,INVALID,163.716,VALID,0,VALID,24.3617,VALID,14,VALID,0,
2011-08-26, 02:46:05,VALID,1003.59,VALID,0,INVALID,163.708,VALID,0,VALID,24.3441,VALID,14,VALID,0,
2011-08-26, 02:47:05,VALID,1003.58,VALID,0,INVALID,163.723,VALID,0,VALID,24.3246,VALID,30,VALID,0,
2011-08-26, 02:48:05,VALID,1003.56,VALID,0,INVALID,163.723,VALID,0.100563,VALID,24.3052,VALID,35,VALID,0,
2011-08-26, 02:49:05,VALID,1003.54,VALID,0,INVALID,163.716,VALID,0,VALID,24.2662,VALID,38,VALID,0,
2011-08-26, 02:50:05,VALID,1003.55,VALID,0,INVALID,163.716,VALID,0,VALID,24.1865,VALID,38,VALID,0,
2011-08-26, 02:51:05,VALID,1003.51,VALID,0,INVALID,163.769,VALID,0,VALID,24.1689,VALID,38,VALID,0,
2011-08-26, 02:52:05,VALID,1003.5,VALID,0,INVALID,163.754,VALID,0.100563,VALID,24.1494,VALID,38,VALID,0,
2011-08-26, 02:53:05,VALID,1003.5,VALID,0,INVALID,163.739,VALID,0,VALID,24.1105,VALID,37,VALID,0,
2011-08-26, 02:54:05,VALID,1003.52,VALID,0,INVALID,163.8,VALID,0,VALID,24.0503,VALID,35,VALID,0,
2011-08-26, 02:55:05,VALID,1003.5,VALID,0,INVALID,163.784,VALID,0,VALID,24.0132,VALID,35,VALID,0,
2011-08-26, 02:56:05,VALID,1003.51,VALID,0,INVALID,163.754,VALID,0,VALID,24.0132,VALID,35,VALID,0,
2011-08-26, 02:57:05,VALID,1003.48,VALID,0,INVALID,163.746,VALID,0,VALID,23.953,VALID,35,VALID,0,
2011-08-26, 02:58:05,VALID,1003.47,VALID,0,INVALID,163.754,VALID,0,VALID,23.9742,VALID,35,VALID,0,
2011-08-26, 02:59:05,VALID,1003.44,VALID,0,INVALID,163.769,VALID,0,VALID,23.9742,VALID,42,VALID,0,
2011-08-26, 03:00:05,VALID,1003.41,VALID,0,INVALID,163.739,VALID,0,VALID,23.9742,VALID,42,VALID,0,
2011-08-26, 03:01:05,VALID,1003.4,VALID,0,INVALID,163.762,VALID,0.100563,VALID,23.9937,VALID,42,VALID,0,
2011-08-26, 03:02:05,VALID,1003.37,VALID,0,INVALID,163.731,VALID,0,VALID,23.9937,VALID,42,VALID,0,
2011-08-26, 03:03:05,VALID,1003.37,VALID,0,INVALID,163.746,VALID,0,VALID,23.9919,VALID,41,VALID,0,
2011-08-26, 03:04:05,VALID,1003.36,VALID,0,INVALID,163.777,VALID,0,VALID,24.0132,VALID,22,VALID,0,
2011-08-26, 03:05:05,VALID,1003.37,VALID,0,INVALID,163.723,VALID,0.100563,VALID,24.0114,VALID,22,VALID,0,
2011-08-26, 03:06:05,VALID,1003.33,VALID,0,INVALID,163.754,VALID,0,VALID,24.0521,VALID,22,VALID,0,
2011-08-26, 03:07:05,VALID,1003.36,VALID,0,INVALID,163.769,VALID,0,VALID,24.0326,VALID,22,VALID,0,
2011-08-26, 03:08:05,VALID,1003.33,VALID,0,INVALID,163.739,VALID,0,VALID,24.0521,VALID,22,VALID,0,
2011-08-26, 03:09:05,VALID,1003.33,VALID,0,INVALID,163.762,VALID,0.100563,VALID,24.0521,VALID,22,VALID,0,
2011-08-26, 03:10:05,VALID,1003.33,VALID,0,INVALID,163.762,VALID,0,VALID,24.091,VALID,22,VALID,0,
2011-08-26, 03:11:05,VALID,1003.34,VALID,0,INVALID,163.777,VALID,0,VALID,24.0892,VALID,22,VALID,0,
2011-08-26, 03:12:05,VALID,1003.34,VALID,0,INVALID,163.769,VALID,0.100563,VALID,24.13,VALID,22,VALID,0,
2011-08-26, 03:13:05,VALID,1003.36,VALID,0,INVALID,163.754,VALID,0,VALID,24.13,VALID,22,VALID,0,
2011-08-26, 03:14:05,VALID,1003.34,VALID,0,INVALID,163.746,VALID,0.100563,VALID,24.1281,VALID,22,VALID,0,
2011-08-26, 03:15:04,VALID,1003.33,VALID,0,INVALID,163.739,VALID,0.100563,VALID,24.1689,VALID,22,VALID,0,
2011-08-26, 03:16:04,VALID,1003.32,VALID,0,INVALID,163.723,VALID,0,VALID,24.1494,VALID,22,VALID,0,
2011-08-26, 03:17:04,VALID,1003.3,VALID,0,INVALID,163.762,VALID,0.100563,VALID,24.1476,VALID,22,VALID,0,
2011-08-26, 03:18:04,VALID,1003.28,VALID,0,INVALID,163.754,VALID,0,VALID,24.1902,VALID,22,VALID,0,
2011-08-26, 03:19:04,VALID,1003.25,VALID,0,INVALID,163.731,VALID,0,VALID,24.1884,VALID,22,VALID,0,
2011-08-26, 03:20:04,VALID,1003.25,VALID,0,INVALID,163.754,VALID,0.100563,VALID,24.1884,VALID,22,VALID,0,
2011-08-26, 03:21:04,VALID,1003.27,VALID,0,INVALID,163.723,VALID,0,VALID,24.2078,VALID,22,VALID,0,
2011-08-26, 03:22:04,VALID,1003.24,VALID,0,INVALID,163.731,VALID,0,VALID,24.2078,VALID,22,VALID,0,
2011-08-26, 03:23:04,VALID,1003.23,VALID,0,INVALID,163.746,VALID,0,VALID,24.2078,VALID,22,VALID,0,
2011-08-26, 03:24:04,VALID,1003.22,VALID,0,INVALID,163.723,VALID,0,VALID,24.2078,VALID,22,VALID,0,
2011-08-26, 03:25:04,VALID,1003.18,VALID,0,INVALID,163.754,VALID,0,VALID,24.1865,VALID,22,VALID,0,
2011-08-26, 03:26:04,VALID,1003.19,VALID,0,INVALID,163.754,VALID,0,VALID,24.1865,VALID,22,VALID,0,
2011-08-26, 03:27:04,VALID,1003.18,VALID,0,INVALID,163.754,VALID,0.100563,VALID,24.2078,VALID,22,VALID,0,
2011-08-26, 03:28:04,VALID,1003.18,VALID,0,INVALID,163.723,VALID,0.100563,VALID,24.1689,VALID,22,VALID,0,
2011-08-26, 03:29:04,VALID,1003.21,VALID,0,INVALID,163.746,VALID,0,VALID,24.1494,VALID,22,VALID,0,
2011-08-26, 03:30:04,VALID,1003.23,VALID,0,INVALID,163.746,VALID,0,VALID,24.13,VALID,22,VALID,0,
2011-08-26, 03:31:04,VALID,1003.24,VALID,0,INVALID,163.762,VALID,0,VALID,24.1105,VALID,22,VALID,0,
2011-08-26, 03:32:04,VALID,1003.2,VALID,0,INVALID,163.746,VALID,0,VALID,24.0716,VALID,22,VALID,0,
2011-08-26, 03:33:04,VALID,1003.2,VALID,0,INVALID,163.762,VALID,0.100563,VALID,24.0716,VALID,22,VALID,0,
2011-08-26, 03:34:04,VALID,1003.21,VALID,0,INVALID,163.777,VALID,0.100563,VALID,24.0308,VALID,25,VALID,0,
2011-08-26, 03:35:04,VALID,1003.21,VALID,0,INVALID,163.746,VALID,0,VALID,24.091,VALID,25,VALID,0,
2011-08-26, 03:36:04,VALID,1003.23,VALID,0,INVALID,163.754,VALID,0,VALID,24.0892,VALID,25,VALID,0,
2011-08-26, 03:37:04,VALID,1003.22,VALID,0,INVALID,163.754,VALID,0.100563,VALID,24.0892,VALID,25,VALID,0,
2011-08-26, 03:38:04,VALID,1003.24,VALID,0,INVALID,163.754,VALID,0,VALID,24.1105,VALID,25,VALID,0,
2011-08-26, 03:39:04,VALID,1003.23,VALID,0,INVALID,163.754,VALID,0.100563,VALID,24.091,VALID,25,VALID,0,
2011-08-26, 03:40:04,VALID,1003.22,VALID,0,INVALID,163.746,VALID,0,VALID,24.0697,VALID,25,VALID,0,
2011-08-26, 03:41:04,VALID,1003.24,VALID,0,INVALID,163.769,VALID,0.100563,VALID,24.1105,VALID,25,VALID,0,
2011-08-26, 03:42:04,VALID,1003.25,VALID,0,INVALID,163.731,VALID,0.100563,VALID,24.1105,VALID,25,VALID,0,
2011-08-26, 03:43:04,VALID,1003.26,VALID,0,INVALID,163.731,VALID,0,VALID,24.1105,VALID,25,VALID,0,
2011-08-26, 03:44:04,VALID,1003.25,VALID,0,INVALID,163.723,VALID,0.100563,VALID,24.0892,VALID,25,VALID,0,
2011-08-26, 03:45:04,VALID,1003.21,VALID,0,INVALID,163.754,VALID,0.100563,VALID,24.0716,VALID,25,VALID,0,
2011-08-26, 03:46:04,VALID,1003.22,VALID,0,INVALID,163.769,VALID,0,VALID,24.0308,VALID,25,VALID,0,
2011-08-26, 03:47:04,VALID,1003.21,VALID,0,INVALID,163.746,VALID,0.100563,VALID,24.0132,VALID,25,VALID,0,
2011-08-26, 03:48:04,VALID,1003.22,VALID,0,INVALID,163.739,VALID,0,VALID,23.9937,VALID,25,VALID,0,
2011-08-26, 03:49:04,VALID,1003.22,VALID,0,INVALID,163.769,VALID,0,VALID,23.953,VALID,25,VALID,0,
2011-08-26, 03:50:04,VALID,1003.21,VALID,0,INVALID,163.723,VALID,0,VALID,23.9937,VALID,25,VALID,0,
2011-08-26, 03:51:04,VALID,1003.19,VALID,0,INVALID,163.792,VALID,0.100563,VALID,24.0326,VALID,25,VALID,0,
2011-08-26, 03:52:04,VALID,1003.22,VALID,0,INVALID,163.769,VALID,0,VALID,24.0716,VALID,25,VALID,0,
2011-08-26, 03:53:04,VALID,1003.22,VALID,0,INVALID,163.777,VALID,0.100563,VALID,24.0114,VALID,25,VALID,0,